Simultaneous Nadir Overpasses (SNOs) Predictions

Prediction of SNOs between GOES-16 and LANDSAT-8 Satellite Orbit:

Table of predicted SNOs for the next 14.0 days since TLE Epoch: 9/24/2022
Index Date Time (GOES-16) GOES-16 Lat,Lon LANDSAT-8 Lat,Lon Distance(km) Time Diff (sec)
1 09/25/2022 03:12:57 0.05, -75.19 0.18, -74.71 54.66 80
2 09/27/2022 03:00:45 0.05, -75.20 0.77, -71.75 392.40 80
3 09/27/2022 15:19:21 -0.05, -75.22 0.29, -76.91 191.76 80
4 09/29/2022 15:09:49 -0.05, -75.24 -0.32, -73.95 146.36 80
5 09/30/2022 03:31:13 0.05, -75.23 -0.80, -79.14 445.20 80
6 10/01/2022 14:57:37 -0.05, -75.25 -0.93, -70.98 484.52 80
7 10/02/2022 03:19:01 0.05, -75.24 -0.18, -76.17 107.05 80
8 10/04/2022 03:04:09 0.04, -75.26 0.44, -73.21 231.56 80
9 10/04/2022 15:25:25 -0.04, -75.28 0.61, -78.38 352.42 80
10 10/06/2022 15:15:53 -0.03, -75.30 -0.02, -75.42 12.88 80
